Time,TemperatureF,DewpointF,PressureIn,WindDirection,WindDirectionDegrees,WindSpeedMPH,WindSpeedGustMPH,Humidity,HourlyPrecipIn,Conditions,Clouds,dailyrainin,SolarRadiationWatts/m^2,SoftwareType,DateUTC
2013-07-05 00:01:00,69.6,62.4,29.87,SW,217,0.0,1.0,78,0.00,,CLR,0.00,0.00,VWS V14.01,2013-07-05 05:01:00,
2013-07-05 00:06:00,69.4,62.2,29.87,SW,217,0.0,1.0,78,0.00,,CLR,0.00,0.00,VWS V14.01,2013-07-05 05:06:00,
2013-07-05 00:11:00,69.3,62.2,29.87,SW,217,0.0,1.0,78,0.00,,CLR,0.00,0.00,VWS V14.01,2013-07-05 05:11:00,
2013-07-05 00:16:00,69.2,62.1,29.87,SW,217,0.0,1.0,78,0.00,,CLR,0.00,0.00,VWS V14.01,2013-07-05 05:16:00,
2013-07-05 00:21:00,69.0,61.9,29.87,SW,217,0.0,1.0,78,0.00,,CLR,0.00,0.00,VWS V14.01,2013-07-05 05:21:00,
2013-07-05 00:26:00,69.0,61.9,29.87,SW,217,0.0,1.0,78,0.00,,CLR,0.00,0.00,VWS V14.01,2013-07-05 05:26:00,
2013-07-05 00:31:00,69.0,62.2,29.88,SW,217,0.0,0.0,79,0.00,,CLR,0.00,0.00,VWS V14.01,2013-07-05 05:31:00,
2013-07-05 00:36:00,68.9,61.8,29.88,SW,217,0.0,1.0,78,0.00,,CLR,0.00,0.00,VWS V14.01,2013-07-05 05:36:00,
2013-07-05 00:41:00,68.9,62.1,29.88,SW,217,0.0,1.0,79,0.00,,CLR,0.00,0.00,VWS V14.01,2013-07-05 05:41:00,
2013-07-05 00:46:00,68.8,62.0,29.88,SW,217,0.0,1.0,79,0.00,,CLR,0.00,0.00,VWS V14.01,2013-07-05 05:46:00,
2013-07-05 00:51:00,68.7,61.9,29.88,SW,217,0.0,1.0,79,0.00,,CLR,0.00,0.00,VWS V14.01,2013-07-05 05:51:00,
2013-07-05 00:56:00,68.6,61.8,29.88,SW,217,0.0,1.0,79,0.00,,CLR,0.00,0.00,VWS V14.01,2013-07-05 05:56:00,
2013-07-05 01:01:00,68.5,61.7,29.88,SW,217,0.0,0.0,79,0.00,,CLR,0.00,0.00,VWS V14.01,2013-07-05 06:01:00,
2013-07-05 01:06:00,68.4,62.0,29.88,SW,217,0.0,0.0,80,0.00,,CLR,0.00,0.00,VWS V14.01,2013-07-05 06:06:00,
2013-07-05 01:11:00,68.4,61.6,29.88,SW,217,0.0,1.0,79,0.00,,CLR,0.00,0.00,VWS V14.01,2013-07-05 06:11:00,
2013-07-05 01:17:00,68.4,61.6,29.88,SW,217,0.0,1.0,79,0.00,,CLR,0.00,0.00,VWS V14.01,2013-07-05 06:17:00,
2013-07-05 01:22:00,68.5,61.7,29.87,SW,217,0.0,1.0,79,0.00,,CLR,0.00,0.00,VWS V14.01,2013-07-05 06:22:00,
2013-07-05 01:27:00,68.6,61.8,29.88,SW,217,0.0,1.0,79,0.00,,CLR,0.00,0.00,VWS V14.01,2013-07-05 06:27:00,
2013-07-05 01:32:00,68.6,61.8,29.87,ESE,110,0.0,1.0,79,0.00,,CLR,0.00,0.00,VWS V14.01,2013-07-05 06:32:00,
2013-07-05 01:37:00,68.7,61.9,29.87,ESE,110,0.0,1.0,79,0.00,,CLR,0.00,0.00,VWS V14.01,2013-07-05 06:37:00,
2013-07-05 01:42:00,68.6,61.8,29.87,ESE,110,0.0,1.0,79,0.00,,CLR,0.00,0.00,VWS V14.01,2013-07-05 06:42:00,
2013-07-05 01:47:00,68.5,61.7,29.87,ESE,110,1.0,1.0,79,0.00,,CLR,0.00,0.00,VWS V14.01,2013-07-05 06:47:00,
2013-07-05 01:52:00,68.3,61.5,29.87,ESE,110,0.0,1.0,79,0.00,,CLR,0.00,0.00,VWS V14.01,2013-07-05 06:52:00,
2013-07-05 01:57:00,68.1,61.7,29.87,ESE,110,0.0,1.0,80,0.00,,CLR,0.00,0.00,VWS V14.01,2013-07-05 06:57:00,
2013-07-05 02:02:00,68.1,61.7,29.87,ESE,110,0.0,1.0,80,0.00,,CLR,0.00,0.00,VWS V14.01,2013-07-05 07:02:00,
2013-07-05 02:07:00,68.1,61.7,29.87,ESE,110,0.0,1.0,80,0.00,,CLR,0.00,0.00,VWS V14.01,2013-07-05 07:07:00,
2013-07-05 02:12:00,68.0,61.6,29.87,ESE,110,0.0,1.0,80,0.00,,CLR,0.00,0.00,VWS V14.01,2013-07-05 07:12:00,
2013-07-05 02:17:00,68.0,61.6,29.87,ESE,110,0.0,1.0,80,0.00,,CLR,0.00,0.00,VWS V14.01,2013-07-05 07:17:00,
2013-07-05 02:22:00,68.0,61.2,29.87,ESE,110,0.0,1.0,79,0.00,,CLR,0.00,0.00,VWS V14.01,2013-07-05 07:22:00,
2013-07-05 02:27:00,68.0,61.2,29.87,WSW,239,0.0,1.0,79,0.00,,CLR,0.00,0.00,VWS V14.01,2013-07-05 07:27:00,
2013-07-05 02:32:00,68.1,61.3,29.87,WSW,239,0.0,1.0,79,0.00,,CLR,0.00,0.00,VWS V14.01,2013-07-05 07:32:00,
2013-07-05 02:37:00,68.0,61.2,29.87,WSW,239,0.0,1.0,79,0.00,,CLR,0.00,0.00,VWS V14.01,2013-07-05 07:37:00,
2013-07-05 02:42:00,68.0,61.2,29.87,WSW,239,0.0,1.0,79,0.00,,CLR,0.00,0.00,VWS V14.01,2013-07-05 07:42:00,
2013-07-05 02:47:00,68.0,61.2,29.87,WSW,239,0.0,1.0,79,0.00,,CLR,0.00,0.00,VWS V14.01,2013-07-05 07:47:00,
2013-07-05 02:52:00,67.8,61.1,29.87,WSW,239,0.0,1.0,79,0.00,,CLR,0.00,0.00,VWS V14.01,2013-07-05 07:52:00,
2013-07-05 02:57:00,67.4,61.0,29.87,South,176,0.0,1.0,80,0.00,,CLR,0.00,0.00,VWS V14.01,2013-07-05 07:57:00,
2013-07-05 03:02:00,66.6,60.6,29.87,South,176,0.0,0.0,81,0.00,,CLR,0.00,0.00,VWS V14.01,2013-07-05 08:02:00,
2013-07-05 03:07:00,66.1,60.5,29.87,South,176,0.0,0.0,82,0.00,,CLR,0.00,0.00,VWS V14.01,2013-07-05 08:07:00,
2013-07-05 03:12:00,65.7,60.4,29.87,South,176,0.0,0.0,83,0.00,,CLR,0.00,0.00,VWS V14.01,2013-07-05 08:12:00,
2013-07-05 03:17:00,65.4,60.5,29.87,South,176,0.0,1.0,84,0.00,,CLR,0.00,0.00,VWS V14.01,2013-07-05 08:17:00,
2013-07-05 03:22:00,65.1,60.2,29.87,South,176,0.0,1.0,84,0.00,,CLR,0.00,0.00,VWS V14.01,2013-07-05 08:22:00,
2013-07-05 03:27:00,64.7,60.1,29.87,South,176,0.0,1.0,85,0.00,,CLR,0.00,0.00,VWS V14.01,2013-07-05 08:27:00,
2013-07-05 03:32:00,64.4,59.8,29.87,South,176,0.0,0.0,85,0.00,,CLR,0.00,0.00,VWS V14.01,2013-07-05 08:32:00,
2013-07-05 03:37:00,64.1,59.8,29.87,South,176,0.0,1.0,86,0.00,,CLR,0.00,0.00,VWS V14.01,2013-07-05 08:37:00,
2013-07-05 03:42:00,64.1,60.2,29.87,South,176,0.0,1.0,87,0.00,,CLR,0.00,0.00,VWS V14.01,2013-07-05 08:42:00,
2013-07-05 03:47:00,64.6,60.3,29.87,South,176,0.0,1.0,86,0.00,,CLR,0.00,0.00,VWS V14.01,2013-07-05 08:47:00,
2013-07-05 03:52:00,65.0,60.4,29.87,South,176,0.0,1.0,85,0.00,,CLR,0.00,0.00,VWS V14.01,2013-07-05 08:52:00,
2013-07-05 03:57:00,65.0,60.4,29.87,South,176,0.0,1.0,85,0.00,,CLR,0.00,0.00,VWS V14.01,2013-07-05 08:57:00,
2013-07-05 04:02:00,64.7,60.1,29.87,South,176,0.0,1.0,85,0.00,,CLR,0.00,0.00,VWS V14.01,2013-07-05 09:02:00,
2013-07-05 04:07:00,64.2,59.6,29.87,South,176,0.0,1.0,85,0.00,,CLR,0.00,0.00,VWS V14.01,2013-07-05 09:07:00,
2013-07-05 04:13:00,63.8,59.5,29.87,South,176,0.0,1.0,86,0.00,,CLR,0.00,0.00,VWS V14.01,2013-07-05 09:13:00,
2013-07-05 04:18:00,63.6,59.7,29.87,South,176,0.0,1.0,87,0.00,,CLR,0.00,0.00,VWS V14.01,2013-07-05 09:18:00,
2013-07-05 04:23:00,63.5,59.6,29.87,South,176,0.0,1.0,87,0.00,,CLR,0.00,0.00,VWS V14.01,2013-07-05 09:23:00,
2013-07-05 04:28:00,63.7,59.8,29.87,South,176,0.0,1.0,87,0.00,,CLR,0.00,0.00,VWS V14.01,2013-07-05 09:28:00,
2013-07-05 04:33:00,64.4,60.1,29.88,South,176,0.0,1.0,86,0.00,,CLR,0.00,0.00,VWS V14.01,2013-07-05 09:33:00,
2013-07-05 04:38:00,64.8,60.2,29.87,South,176,0.0,1.0,85,0.00,,CLR,0.00,0.00,VWS V14.01,2013-07-05 09:38:00,
2013-07-05 04:43:00,64.7,60.1,29.88,South,176,0.0,1.0,85,0.00,,CLR,0.00,0.00,VWS V14.01,2013-07-05 09:43:00,
2013-07-05 04:48:00,64.7,60.1,29.88,South,176,1.0,1.0,85,0.00,,CLR,0.00,0.00,VWS V14.01,2013-07-05 09:48:00,
2013-07-05 04:53:00,64.6,60.0,29.88,South,176,0.0,1.0,85,0.00,,CLR,0.00,0.00,VWS V14.01,2013-07-05 09:53:00,
2013-07-05 04:58:00,64.3,59.7,29.88,South,176,0.0,1.0,85,0.00,,CLR,0.00,0.00,VWS V14.01,2013-07-05 09:58:00,
2013-07-05 05:03:00,64.0,59.7,29.88,South,176,1.0,1.0,86,0.00,,CLR,0.00,0.00,VWS V14.01,2013-07-05 10:03:00,
2013-07-05 05:08:00,63.8,59.5,29.88,South,176,0.0,1.0,86,0.00,,CLR,0.00,0.00,VWS V14.01,2013-07-05 10:08:00,
2013-07-05 05:14:00,63.6,59.3,29.88,South,176,0.0,1.0,86,0.00,,CLR,0.00,0.00,VWS V14.01,2013-07-05 10:14:00,
2013-07-05 05:19:00,63.2,59.0,29.88,South,176,0.0,1.0,86,0.00,,CLR,0.00,0.00,VWS V14.01,2013-07-05 10:19:00,
2013-07-05 05:24:00,63.0,59.1,29.88,South,176,0.0,1.0,87,0.00,,CLR,0.00,0.00,VWS V14.01,2013-07-05 10:24:00,
2013-07-05 05:29:00,63.2,59.3,29.88,South,176,0.0,0.0,87,0.00,,CLR,0.00,0.00,VWS V14.01,2013-07-05 10:29:00,
2013-07-05 05:34:00,63.0,59.1,29.88,East,94,0.0,3.0,87,0.00,,CLR,0.00,5.00,VWS V14.01,2013-07-05 10:34:00,
2013-07-05 05:39:00,62.7,58.8,29.88,East,94,0.0,3.0,87,0.00,,CLR,0.00,7.00,VWS V14.01,2013-07-05 10:39:00,
2013-07-05 05:44:00,62.6,59.0,29.88,East,94,0.0,3.0,88,0.00,,CLR,0.00,9.00,VWS V14.01,2013-07-05 10:44:00,
2013-07-05 05:49:00,62.8,59.2,29.88,East,94,0.0,3.0,88,0.00,,CLR,0.00,11.00,VWS V14.01,2013-07-05 10:49:00,
2013-07-05 05:55:00,63.0,59.1,29.88,East,94,0.0,3.0,87,0.00,,CLR,0.00,12.00,VWS V14.01,2013-07-05 10:55:00,
2013-07-05 06:00:00,63.2,59.3,29.88,East,94,0.0,0.0,87,0.00,,CLR,0.00,14.00,VWS V14.01,2013-07-05 11:00:00,
2013-07-05 06:05:00,63.2,59.3,29.88,East,94,0.0,1.0,87,0.00,,CLR,0.00,16.00,VWS V14.01,2013-07-05 11:05:00,
2013-07-05 06:10:00,63.2,59.3,29.88,East,94,0.0,1.0,87,0.00,,CLR,0.00,18.00,VWS V14.01,2013-07-05 11:10:00,
2013-07-05 06:16:00,63.2,59.3,29.88,East,94,0.0,1.0,87,0.00,,CLR,0.00,19.00,VWS V14.01,2013-07-05 11:16:00,
2013-07-05 06:21:00,63.2,59.3,29.88,East,94,0.0,1.0,87,0.00,,CLR,0.00,21.00,VWS V14.01,2013-07-05 11:21:00,
2013-07-05 06:26:00,63.3,59.4,29.88,East,94,0.0,1.0,87,0.00,,CLR,0.00,23.00,VWS V14.01,2013-07-05 11:26:00,
2013-07-05 06:31:00,63.2,59.3,29.88,East,94,0.0,0.0,87,0.00,,CLR,0.00,25.00,VWS V14.01,2013-07-05 11:31:00,
2013-07-05 06:36:00,63.0,59.4,29.88,East,94,0.0,0.0,88,0.00,,CLR,0.00,25.00,VWS V14.01,2013-07-05 11:36:00,
2013-07-05 06:41:00,63.0,59.4,29.88,East,94,0.0,0.0,88,0.00,,CLR,0.00,26.00,VWS V14.01,2013-07-05 11:41:00,
2013-07-05 06:47:00,63.0,59.4,29.89,East,94,0.0,0.0,88,0.00,,CLR,0.00,28.00,VWS V14.01,2013-07-05 11:47:00,
2013-07-05 06:52:00,63.2,59.6,29.88,East,94,0.0,0.0,88,0.00,,CLR,0.00,30.00,VWS V14.01,2013-07-05 11:52:00,
2013-07-05 06:57:00,63.5,59.6,29.89,East,94,0.0,0.0,87,0.00,,CLR,0.00,30.00,VWS V14.01,2013-07-05 11:57:00,
2013-07-05 07:02:00,63.7,59.8,29.89,East,94,0.0,0.0,87,0.00,,CLR,0.00,32.00,VWS V14.01,2013-07-05 12:02:00,
2013-07-05 07:07:00,63.9,60.0,29.89,East,94,0.0,1.0,87,0.00,,CLR,0.00,33.00,VWS V14.01,2013-07-05 12:07:00,
2013-07-05 07:13:00,64.2,59.9,29.89,East,94,0.0,1.0,86,0.00,,CLR,0.00,35.00,VWS V14.01,2013-07-05 12:13:00,
2013-07-05 07:18:00,64.5,60.2,29.89,East,94,0.0,1.0,86,0.00,,CLR,0.00,35.00,VWS V14.01,2013-07-05 12:18:00,
2013-07-05 07:23:00,64.8,60.5,29.89,East,94,0.0,1.0,86,0.00,,CLR,0.00,37.00,VWS V14.01,2013-07-05 12:23:00,
2013-07-05 07:28:00,65.1,60.5,29.89,East,94,0.0,1.0,85,0.00,,CLR,0.00,39.00,VWS V14.01,2013-07-05 12:28:00,
2013-07-05 07:33:00,65.5,60.9,29.89,East,94,0.0,0.0,85,0.00,,CLR,0.00,39.00,VWS V14.01,2013-07-05 12:33:00,
2013-07-05 07:38:00,65.7,61.1,29.89,East,94,0.0,1.0,85,0.00,,CLR,0.00,40.00,VWS V14.01,2013-07-05 12:38:00,
2013-07-05 07:43:00,65.9,61.3,29.89,East,94,0.0,1.0,85,0.00,,CLR,0.00,42.00,VWS V14.01,2013-07-05 12:43:00,
2013-07-05 07:48:00,66.2,61.2,29.89,East,94,0.0,1.0,84,0.00,,CLR,0.00,42.00,VWS V14.01,2013-07-05 12:48:00,
2013-07-05 07:53:00,66.6,61.6,29.89,East,94,0.0,1.0,84,0.00,,CLR,0.00,44.00,VWS V14.01,2013-07-05 12:53:00,
2013-07-05 07:58:00,66.9,61.9,29.89,East,94,0.0,1.0,84,0.00,,CLR,0.00,44.00,VWS V14.01,2013-07-05 12:58:00,
2013-07-05 08:03:00,67.3,62.0,29.89,South,189,1.0,2.0,83,0.00,,CLR,0.00,46.00,VWS V14.01,2013-07-05 13:03:00,
2013-07-05 08:08:00,67.8,62.1,29.89,South,187,0.0,4.0,82,0.00,,CLR,0.00,47.00,VWS V14.01,2013-07-05 13:08:00,
2013-07-05 08:13:00,68.2,62.2,29.89,South,190,0.0,4.0,81,0.00,,CLR,0.00,53.00,VWS V14.01,2013-07-05 13:13:00,
2013-07-05 08:18:00,68.6,62.5,29.89,South,190,0.0,4.0,81,0.00,,CLR,0.00,90.00,VWS V14.01,2013-07-05 13:18:00,
2013-07-05 08:23:00,69.1,62.3,29.89,South,190,0.0,4.0,79,0.00,,CLR,0.00,51.00,VWS V14.01,2013-07-05 13:23:00,
2013-07-05 08:28:00,69.6,62.4,29.89,SE,136,0.0,4.0,78,0.00,,CLR,0.00,53.00,VWS V14.01,2013-07-05 13:28:00,
2013-07-05 08:34:00,70.0,62.8,29.89,SSW,194,0.0,6.0,78,0.00,,CLR,0.00,58.00,VWS V14.01,2013-07-05 13:34:00,
2013-07-05 08:39:00,70.5,62.6,29.89,SSW,196,4.0,6.0,76,0.00,,CLR,0.00,56.00,VWS V14.01,2013-07-05 13:39:00,
2013-07-05 08:44:00,70.9,63.0,29.89,South,175,0.0,6.0,76,0.00,,CLR,0.00,58.00,VWS V14.01,2013-07-05 13:44:00,
2013-07-05 08:49:00,71.3,62.6,29.89,South,184,0.0,6.0,74,0.00,,CLR,0.00,67.00,VWS V14.01,2013-07-05 13:49:00,
2013-07-05 08:54:00,71.7,62.2,29.89,South,179,0.0,6.0,72,0.00,,CLR,0.00,62.00,VWS V14.01,2013-07-05 13:54:00,
2013-07-05 08:59:00,72.1,62.2,29.89,South,191,4.0,4.0,71,0.00,,CLR,0.00,77.00,VWS V14.01,2013-07-05 13:59:00,
2013-07-05 09:04:00,72.6,62.7,29.89,SW,215,5.0,7.0,71,0.00,,CLR,0.00,206.00,VWS V14.01,2013-07-05 14:04:00,
2013-07-05 09:09:00,73.1,62.7,29.89,South,189,4.0,7.0,70,0.00,,CLR,0.00,413.00,VWS V14.01,2013-07-05 14:09:00,
2013-07-05 09:14:00,73.5,63.1,29.89,SSE,163,0.0,8.0,70,0.00,,CLR,0.00,547.00,VWS V14.01,2013-07-05 14:14:00,
2013-07-05 09:19:00,73.9,62.7,29.89,SE,138,0.0,8.0,68,0.00,,CLR,0.00,561.00,VWS V14.01,2013-07-05 14:19:00,
2013-07-05 09:24:00,74.3,63.1,29.89,SSE,163,1.0,8.0,68,0.00,,CLR,0.00,573.00,VWS V14.01,2013-07-05 14:24:00,
2013-07-05 09:30:00,74.8,63.1,29.89,SSE,166,0.0,1.0,67,0.00,,CLR,0.00,587.00,VWS V14.01,2013-07-05 14:30:00,
2013-07-05 09:35:00,75.3,63.2,29.88,South,185,0.0,8.0,66,0.00,,CLR,0.00,601.00,VWS V14.01,2013-07-05 14:35:00,
2013-07-05 09:40:00,75.6,63.0,29.88,SSW,205,3.0,8.0,65,0.00,,CLR,0.00,615.00,VWS V14.01,2013-07-05 14:40:00,
2013-07-05 09:45:00,75.9,62.4,29.88,SSW,196,6.0,13.0,63,0.00,,CLR,0.00,626.00,VWS V14.01,2013-07-05 14:45:00,
2013-07-05 09:50:00,76.3,63.7,29.88,SE,145,0.0,13.0,65,0.00,,CLR,0.00,642.00,VWS V14.01,2013-07-05 14:50:00,
2013-07-05 09:55:00,76.6,63.1,29.88,SSE,153,2.0,13.0,63,0.00,,CLR,0.00,657.00,VWS V14.01,2013-07-05 14:55:00,
2013-07-05 10:00:00,76.7,62.7,29.88,South,180,7.0,10.0,62,0.00,,CLR,0.00,668.00,VWS V14.01,2013-07-05 15:00:00,
2013-07-05 10:05:00,76.8,62.8,29.88,SSE,151,0.0,10.0,62,0.00,,CLR,0.00,680.00,VWS V14.01,2013-07-05 15:05:00,
2013-07-05 10:10:00,77.2,63.6,29.88,SE,136,0.0,10.0,63,0.00,,CLR,0.00,693.00,VWS V14.01,2013-07-05 15:10:00,
2013-07-05 10:15:00,77.5,63.5,29.88,South,180,7.0,12.0,62,0.00,,CLR,0.00,705.00,VWS V14.01,2013-07-05 15:15:00,
2013-07-05 10:20:00,77.8,63.3,29.88,South,172,0.0,12.0,61,0.00,,CLR,0.00,715.00,VWS V14.01,2013-07-05 15:20:00,
2013-07-05 10:26:00,78.2,64.1,29.88,SSE,167,3.0,12.0,62,0.00,,CLR,0.00,724.00,VWS V14.01,2013-07-05 15:26:00,
2013-07-05 10:31:00,78.2,62.2,29.88,SSW,202,10.0,11.0,58,0.00,,CLR,0.00,738.00,VWS V14.01,2013-07-05 15:31:00,
2013-07-05 10:36:00,78.3,62.8,29.88,ESE,121,3.0,15.0,59,0.00,,CLR,0.00,749.00,VWS V14.01,2013-07-05 15:36:00,
2013-07-05 10:41:00,78.5,63.0,29.88,SE,146,3.0,15.0,59,0.00,,CLR,0.00,758.00,VWS V14.01,2013-07-05 15:41:00,
2013-07-05 10:46:00,78.8,63.3,29.87,SE,126,0.0,15.0,59,0.00,,CLR,0.00,773.00,VWS V14.01,2013-07-05 15:46:00,
2013-07-05 10:49:00,79.1,63.1,29.88,SSE,157,1.0,15.0,58,0.00,,CLR,0.00,779.00,VWS V14.01,2013-07-05 15:49:00,
2013-07-05 10:54:00,79.3,63.3,29.87,SSW,195,6.0,15.0,58,0.00,,CLR,0.00,788.00,VWS V14.01,2013-07-05 15:54:00,
2013-07-05 10:59:00,79.5,62.5,29.87,South,179,2.0,10.0,56,0.00,,CLR,0.00,798.00,VWS V14.01,2013-07-05 15:59:00,
2013-07-05 11:04:00,79.8,63.2,29.87,SSW,196,7.0,10.0,57,0.00,,CLR,0.00,802.00,VWS V14.01,2013-07-05 16:04:00,
2013-07-05 11:09:00,79.9,63.8,29.87,SSW,202,1.0,15.0,58,0.00,,CLR,0.00,817.00,VWS V14.01,2013-07-05 16:09:00,
2013-07-05 11:14:00,80.1,63.0,29.86,SSW,196,8.0,15.0,56,0.00,,CLR,0.00,817.00,VWS V14.01,2013-07-05 16:14:00,
2013-07-05 11:19:00,80.2,63.6,29.86,SSE,155,4.0,15.0,57,0.00,,CLR,0.00,826.00,VWS V14.01,2013-07-05 16:19:00,
2013-07-05 11:24:00,80.5,63.9,29.86,ESE,118,7.0,15.0,57,0.00,,CLR,0.00,835.00,VWS V14.01,2013-07-05 16:24:00,
2013-07-05 11:29:00,80.5,62.3,29.86,SSE,161,2.0,13.0,54,0.00,,CLR,0.00,840.00,VWS V14.01,2013-07-05 16:29:00,
2013-07-05 11:34:00,80.5,62.3,29.86,SSW,192,16.0,19.0,54,0.00,,CLR,0.00,840.00,VWS V14.01,2013-07-05 16:34:00,
2013-07-05 11:39:00,80.7,62.0,29.86,ESE,123,3.0,19.0,53,0.00,,CLR,0.00,858.00,VWS V14.01,2013-07-05 16:39:00,
2013-07-05 11:44:00,80.7,62.0,29.86,South,180,6.0,19.0,53,0.00,,CLR,0.00,865.00,VWS V14.01,2013-07-05 16:44:00,
2013-07-05 11:50:00,80.9,62.7,29.85,South,180,10.0,19.0,54,0.00,,CLR,0.00,867.00,VWS V14.01,2013-07-05 16:50:00,
2013-07-05 11:55:00,81.1,61.8,29.85,South,188,0.0,19.0,52,0.00,,CLR,0.00,870.00,VWS V14.01,2013-07-05 16:55:00,
2013-07-05 12:00:00,81.3,60.9,29.85,SSE,163,10.0,18.0,50,0.00,,CLR,0.00,877.00,VWS V14.01,2013-07-05 17:00:00,
2013-07-05 12:05:00,81.4,61.5,29.85,SSE,164,3.0,18.0,51,0.00,,CLR,0.00,882.00,VWS V14.01,2013-07-05 17:05:00,
2013-07-05 12:10:00,81.5,62.7,29.85,South,190,5.0,18.0,53,0.00,,CLR,0.00,888.00,VWS V14.01,2013-07-05 17:10:00,
2013-07-05 12:15:00,81.6,62.8,29.85,SSE,164,5.0,20.0,53,0.00,,CLR,0.00,891.00,VWS V14.01,2013-07-05 17:15:00,
2013-07-05 12:20:00,81.8,61.9,29.85,SSE,148,2.0,20.0,51,0.00,,CLR,0.00,904.00,VWS V14.01,2013-07-05 17:20:00,
2013-07-05 12:25:00,82.0,62.7,29.85,SSE,165,2.0,20.0,52,0.00,,CLR,0.00,905.00,VWS V14.01,2013-07-05 17:25:00,
2013-07-05 12:30:00,82.2,63.4,29.85,SSE,165,8.0,10.0,53,0.00,,CLR,0.00,911.00,VWS V14.01,2013-07-05 17:30:00,
2013-07-05 12:35:00,82.3,64.0,29.84,SSW,192,3.0,10.0,54,0.00,,CLR,0.00,911.00,VWS V14.01,2013-07-05 17:35:00,
2013-07-05 12:40:00,82.3,63.5,29.84,SSW,205,4.0,15.0,53,0.00,,CLR,0.00,905.00,VWS V14.01,2013-07-05 17:40:00,
2013-07-05 12:45:00,82.4,64.6,29.84,SE,126,2.0,15.0,55,0.00,,CLR,0.00,919.00,VWS V14.01,2013-07-05 17:45:00,
2013-07-05 12:50:00,82.4,63.6,29.84,SE,138,2.0,15.0,53,0.00,,CLR,0.00,925.00,VWS V14.01,2013-07-05 17:50:00,
2013-07-05 12:55:00,82.4,64.1,29.84,SSE,150,0.0,15.0,54,0.00,,CLR,0.00,921.00,VWS V14.01,2013-07-05 17:55:00,
2013-07-05 13:00:00,82.5,63.7,29.84,ESE,118,2.0,2.0,53,0.00,,CLR,0.00,921.00,VWS V14.01,2013-07-05 18:00:00,
2013-07-05 13:05:00,82.6,62.7,29.84,SE,138,2.0,6.0,51,0.00,,CLR,0.00,911.00,VWS V14.01,2013-07-05 18:05:00,
2013-07-05 13:10:00,82.7,63.3,29.83,East,89,2.0,6.0,52,0.00,,CLR,0.00,921.00,VWS V14.01,2013-07-05 18:10:00,
2013-07-05 13:15:00,82.7,63.8,29.83,SE,136,2.0,7.0,53,0.00,,CLR,0.00,791.00,VWS V14.01,2013-07-05 18:15:00,
2013-07-05 13:20:00,82.7,62.8,29.83,SE,134,0.0,7.0,51,0.00,,CLR,0.00,912.00,VWS V14.01,2013-07-05 18:20:00,
2013-07-05 13:25:00,82.7,63.3,29.83,SW,214,11.0,12.0,52,0.00,,CLR,0.00,916.00,VWS V14.01,2013-07-05 18:25:00,
2013-07-05 13:30:00,82.8,63.4,29.83,ESE,119,7.0,12.0,52,0.00,,CLR,0.00,914.00,VWS V14.01,2013-07-05 18:30:00,
2013-07-05 13:35:00,83.2,62.1,29.83,ESE,117,1.0,13.0,49,0.00,,CLR,0.00,914.00,VWS V14.01,2013-07-05 18:35:00,
2013-07-05 13:40:00,83.0,63.6,29.83,SSW,197,9.0,13.0,52,0.00,,CLR,0.00,909.00,VWS V14.01,2013-07-05 18:40:00,
2013-07-05 13:45:00,83.3,64.4,29.83,SSE,154,2.0,17.0,53,0.00,,CLR,0.00,902.00,VWS V14.01,2013-07-05 18:45:00,
2013-07-05 13:50:00,83.3,63.9,29.83,SSE,158,2.0,17.0,52,0.00,,CLR,0.00,905.00,VWS V14.01,2013-07-05 18:50:00,
2013-07-05 13:55:00,83.5,64.0,29.83,SSE,148,3.0,17.0,52,0.00,,CLR,0.00,904.00,VWS V14.01,2013-07-05 18:55:00,
2013-07-05 14:00:00,83.8,63.8,29.82,SSW,192,5.0,12.0,51,0.00,,CLR,0.00,898.00,VWS V14.01,2013-07-05 19:00:00,
2013-07-05 14:05:00,83.8,64.3,29.82,SSE,155,0.0,15.0,52,0.00,,CLR,0.00,907.00,VWS V14.01,2013-07-05 19:05:00,
2013-07-05 14:10:00,83.9,63.3,29.83,ESE,119,4.0,15.0,50,0.00,,CLR,0.00,907.00,VWS V14.01,2013-07-05 19:10:00,
2013-07-05 14:15:00,84.0,63.4,29.83,SSE,165,3.0,15.0,50,0.00,,CLR,0.00,935.00,VWS V14.01,2013-07-05 19:15:00,
2013-07-05 14:20:00,84.1,62.3,29.83,South,186,11.0,15.0,48,0.00,,CLR,0.00,935.00,VWS V14.01,2013-07-05 19:20:00,
2013-07-05 14:25:00,84.2,63.6,29.82,ESE,116,2.0,15.0,50,0.00,,CLR,0.00,1016.00,VWS V14.01,2013-07-05 19:25:00,
2013-07-05 14:30:00,84.2,64.1,29.82,South,169,6.0,8.0,51,0.00,,CLR,0.00,1021.00,VWS V14.01,2013-07-05 19:30:00,
2013-07-05 14:35:00,84.1,63.5,29.83,SE,132,3.0,12.0,50,0.00,,CLR,0.00,454.00,VWS V14.01,2013-07-05 19:35:00,
2013-07-05 14:40:00,84.0,65.1,29.82,SSE,154,0.0,12.0,53,0.00,,CLR,0.00,962.00,VWS V14.01,2013-07-05 19:40:00,
2013-07-05 14:45:00,84.2,63.6,29.82,South,183,7.0,13.0,50,0.00,,CLR,0.00,374.00,VWS V14.01,2013-07-05 19:45:00,
2013-07-05 14:50:00,83.8,63.8,29.82,South,169,0.0,13.0,51,0.00,,CLR,0.00,900.00,VWS V14.01,2013-07-05 19:50:00,
2013-07-05 14:55:00,84.0,63.4,29.82,ESE,108,8.0,16.0,50,0.00,,CLR,0.00,853.00,VWS V14.01,2013-07-05 19:55:00,
2013-07-05 15:00:00,84.3,65.9,29.82,SSW,194,4.0,9.0,54,0.00,,FEW110,0.00,835.00,VWS V14.01,2013-07-05 20:00:00,
2013-07-05 15:05:00,84.7,63.5,29.82,South,173,2.0,14.0,49,0.00,,FEW110,0.00,842.00,VWS V14.01,2013-07-05 20:05:00,
2013-07-05 15:10:00,84.7,64.0,29.82,SSW,194,3.0,18.0,50,0.00,,FEW110,0.00,789.00,VWS V14.01,2013-07-05 20:10:00,
2013-07-05 15:15:00,84.7,65.1,29.82,SSW,192,6.0,18.0,52,0.00,,FEW110,0.00,793.00,VWS V14.01,2013-07-05 20:15:00,
2013-07-05 15:20:00,85.0,63.1,29.82,SW,231,9.0,18.0,48,0.00,,FEW110,0.00,819.00,VWS V14.01,2013-07-05 20:20:00,
2013-07-05 15:25:00,85.4,65.2,29.82,SE,130,3.0,18.0,51,0.00,,FEW110,0.00,636.00,VWS V14.01,2013-07-05 20:25:00,
2013-07-05 15:30:00,85.0,63.1,29.82,SSW,193,6.0,8.0,48,0.00,,FEW110,0.00,504.00,VWS V14.01,2013-07-05 20:30:00,
2013-07-05 15:35:00,84.8,63.5,29.82,SE,144,1.0,9.0,49,0.00,,FEW110,0.00,758.00,VWS V14.01,2013-07-05 20:35:00,
2013-07-05 15:40:00,84.8,65.2,29.82,ESE,122,0.0,13.0,52,0.00,,FEW110,0.00,728.00,VWS V14.01,2013-07-05 20:40:00,
2013-07-05 15:41:00,84.8,64.1,29.82,SSW,208,6.0,13.0,50,0.00,,FEW110,0.00,728.00,VWS V14.01,2013-07-05 20:41:00,
2013-07-05 15:46:00,84.6,65.1,29.82,SE,135,0.0,13.0,52,0.00,,FEW110,0.00,570.00,VWS V14.01,2013-07-05 20:46:00,
2013-07-05 15:51:00,84.6,64.5,29.82,SE,136,3.0,13.0,51,0.00,,FEW110,0.00,782.00,VWS V14.01,2013-07-05 20:51:00,
2013-07-05 15:56:00,84.8,64.7,29.81,South,188,0.0,13.0,51,0.00,,FEW110,0.00,719.00,VWS V14.01,2013-07-05 20:56:00,
2013-07-05 16:01:00,84.7,65.1,29.81,SE,139,6.0,6.0,52,0.00,,CLR,0.00,661.00,VWS V14.01,2013-07-05 21:01:00,
2013-07-05 16:06:00,84.5,64.4,29.81,South,176,5.0,8.0,51,0.00,,CLR,0.00,406.00,VWS V14.01,2013-07-05 21:06:00,
2013-07-05 16:07:00,84.5,64.4,29.81,SE,144,6.0,8.0,51,0.00,,CLR,0.00,406.00,VWS V14.01,2013-07-05 21:07:00,
2013-07-05 16:12:00,84.2,64.7,29.81,SSE,155,2.0,11.0,52,0.00,,CLR,0.00,603.00,VWS V14.01,2013-07-05 21:12:00,
2013-07-05 16:17:00,84.1,64.6,29.81,SE,132,2.0,11.0,52,0.00,,CLR,0.00,413.00,VWS V14.01,2013-07-05 21:17:00,
2013-07-05 16:22:00,83.9,64.4,29.81,ESE,113,0.0,11.0,52,0.00,,CLR,0.00,761.00,VWS V14.01,2013-07-05 21:22:00,
2013-07-05 16:27:00,84.3,65.3,29.81,SSE,163,2.0,15.0,53,0.00,,CLR,0.00,636.00,VWS V14.01,2013-07-05 21:27:00,
2013-07-05 16:32:00,84.2,64.7,29.81,SSE,161,0.0,12.0,52,0.00,,CLR,0.00,332.00,VWS V14.01,2013-07-05 21:32:00,
2013-07-05 16:37:00,84.1,65.1,29.81,SSW,193,5.0,12.0,53,0.00,,CLR,0.00,673.00,VWS V14.01,2013-07-05 21:37:00,
2013-07-05 16:42:00,84.4,64.9,29.81,South,190,2.0,12.0,52,0.00,,CLR,0.00,517.00,VWS V14.01,2013-07-05 21:42:00,
2013-07-05 16:47:00,84.6,65.1,29.81,SSW,205,9.0,12.0,52,0.00,,CLR,0.00,380.00,VWS V14.01,2013-07-05 21:47:00,
2013-07-05 16:52:00,84.4,64.3,29.81,SSW,199,1.0,15.0,51,0.00,,CLR,0.00,457.00,VWS V14.01,2013-07-05 21:52:00,
2013-07-05 16:57:00,84.1,64.6,29.81,South,188,4.0,15.0,52,0.00,,CLR,0.00,536.00,VWS V14.01,2013-07-05 21:57:00,
2013-07-05 17:02:00,83.9,65.5,29.81,SSE,160,4.0,4.0,54,0.00,,CLR,0.00,643.00,VWS V14.01,2013-07-05 22:02:00,
2013-07-05 17:07:00,84.1,65.1,29.81,SE,145,1.0,13.0,53,0.00,,CLR,0.00,417.00,VWS V14.01,2013-07-05 22:07:00,
2013-07-05 17:12:00,84.0,64.5,29.81,South,178,2.0,15.0,52,0.00,,CLR,0.00,355.00,VWS V14.01,2013-07-05 22:12:00,
2013-07-05 17:17:00,83.8,64.9,29.81,SE,134,1.0,15.0,53,0.00,,CLR,0.00,501.00,VWS V14.01,2013-07-05 22:17:00,
2013-07-05 17:22:00,83.9,64.9,29.81,South,175,2.0,15.0,53,0.00,,CLR,0.00,471.00,VWS V14.01,2013-07-05 22:22:00,
2013-07-05 17:27:00,83.7,64.2,29.81,SE,141,2.0,15.0,52,0.00,,CLR,0.00,302.00,VWS V14.01,2013-07-05 22:27:00,
2013-07-05 17:32:00,83.2,64.3,29.81,East,84,0.0,12.0,53,0.00,,CLR,0.00,348.00,VWS V14.01,2013-07-05 22:32:00,
2013-07-05 17:37:00,82.9,64.0,29.81,SSW,207,4.0,12.0,53,0.00,,CLR,0.00,192.00,VWS V14.01,2013-07-05 22:37:00,
2013-07-05 17:43:00,82.5,64.2,29.80,South,172,1.0,12.0,54,0.00,,CLR,0.00,304.00,VWS V14.01,2013-07-05 22:43:00,
2013-07-05 17:48:00,82.6,64.3,29.80,South,180,1.0,13.0,54,0.00,,CLR,0.00,497.00,VWS V14.01,2013-07-05 22:48:00,
2013-07-05 17:53:00,82.8,63.9,29.80,South,188,5.0,13.0,53,0.00,,CLR,0.00,309.00,VWS V14.01,2013-07-05 22:53:00,
2013-07-05 17:58:00,82.9,63.5,29.80,SE,134,0.0,13.0,52,0.00,,CLR,0.00,436.00,VWS V14.01,2013-07-05 22:58:00,
2013-07-05 18:03:00,83.2,63.8,29.80,South,169,2.0,4.0,52,0.00,,CLR,0.00,512.00,VWS V14.01,2013-07-05 23:03:00,
2013-07-05 18:08:00,83.3,63.9,29.80,SSE,155,0.0,12.0,52,0.00,,CLR,0.00,229.00,VWS V14.01,2013-07-05 23:08:00,
2013-07-05 18:13:00,83.0,64.1,29.80,ESE,122,1.0,12.0,53,0.00,,CLR,0.00,315.00,VWS V14.01,2013-07-05 23:13:00,
2013-07-05 18:18:00,82.7,63.8,29.80,SE,144,5.0,12.0,53,0.00,,CLR,0.00,178.00,VWS V14.01,2013-07-05 23:18:00,
2013-07-05 18:23:00,82.2,62.8,29.80,ESE,105,0.0,12.0,52,0.00,,CLR,0.00,258.00,VWS V14.01,2013-07-05 23:23:00,
2013-07-05 18:28:00,81.9,63.1,29.80,South,173,1.0,12.0,53,0.00,,CLR,0.00,158.00,VWS V14.01,2013-07-05 23:28:00,
2013-07-05 18:33:00,81.6,63.4,29.80,SE,128,0.0,6.0,54,0.00,,CLR,0.00,137.00,VWS V14.01,2013-07-05 23:33:00,
2013-07-05 18:38:00,81.3,63.1,29.80,SE,139,3.0,6.0,54,0.00,,CLR,0.00,118.00,VWS V14.01,2013-07-05 23:38:00,
2013-07-05 18:43:00,81.1,63.9,29.79,SE,130,0.0,6.0,56,0.00,,CLR,0.00,100.00,VWS V14.01,2013-07-05 23:43:00,
2013-07-05 18:48:00,80.9,63.8,29.80,South,183,2.0,6.0,56,0.00,,CLR,0.00,98.00,VWS V14.01,2013-07-05 23:48:00,
2013-07-05 18:53:00,80.7,63.6,29.80,ESE,118,0.0,6.0,56,0.00,,CLR,0.00,88.00,VWS V14.01,2013-07-05 23:53:00,
2013-07-05 18:58:00,80.5,63.9,29.80,ENE,69,0.0,8.0,57,0.00,,CLR,0.00,83.00,VWS V14.01,2013-07-05 23:58:00,
2013-07-05 19:03:00,80.4,63.3,29.80,SSW,208,10.0,10.0,56,0.00,,CLR,0.00,77.00,VWS V14.01,2013-07-06 00:03:00,
2013-07-05 19:08:00,80.4,63.3,29.80,South,186,0.0,12.0,56,0.00,,CLR,0.00,72.00,VWS V14.01,2013-07-06 00:08:00,
2013-07-05 19:13:00,80.3,63.2,29.80,South,189,1.0,12.0,56,0.00,,CLR,0.00,62.00,VWS V14.01,2013-07-06 00:13:00,
2013-07-05 19:18:00,80.3,62.2,29.80,SE,134,0.0,12.0,54,0.00,,CLR,0.00,53.00,VWS V14.01,2013-07-06 00:18:00,
2013-07-05 19:23:00,80.3,62.7,29.80,South,169,3.0,12.0,55,0.00,,CLR,0.00,47.00,VWS V14.01,2013-07-06 00:23:00,
2013-07-05 19:28:00,80.3,62.2,29.80,SE,134,1.0,12.0,54,0.00,,CLR,0.00,46.00,VWS V14.01,2013-07-06 00:28:00,
2013-07-05 19:33:00,80.2,62.1,29.80,East,97,0.0,5.0,54,0.00,,CLR,0.00,46.00,VWS V14.01,2013-07-06 00:33:00,
2013-07-05 19:38:00,80.1,62.5,29.80,ESE,107,0.0,5.0,55,0.00,,CLR,0.00,47.00,VWS V14.01,2013-07-06 00:38:00,
2013-07-05 19:43:00,80.0,62.4,29.80,SSW,198,0.0,5.0,55,0.00,,CLR,0.00,49.00,VWS V14.01,2013-07-06 00:43:00,
2013-07-05 19:48:00,79.9,62.8,29.80,SSE,157,0.0,5.0,56,0.00,,CLR,0.00,42.00,VWS V14.01,2013-07-06 00:48:00,
2013-07-05 19:53:00,79.8,62.7,29.80,South,191,0.0,5.0,56,0.00,,CLR,0.00,40.00,VWS V14.01,2013-07-06 00:53:00,
2013-07-05 19:58:00,79.8,62.7,29.80,SE,131,2.0,5.0,56,0.00,,CLR,0.00,39.00,VWS V14.01,2013-07-06 00:58:00,
2013-07-05 20:03:00,79.8,62.2,29.81,ESE,107,2.0,5.0,55,0.00,,CLR,0.00,37.00,VWS V14.01,2013-07-06 01:03:00,
2013-07-05 20:08:00,79.7,62.1,29.80,SSE,168,3.0,5.0,55,0.00,,CLR,0.00,30.00,VWS V14.01,2013-07-06 01:08:00,
2013-07-05 20:13:00,79.6,62.5,29.80,SSE,161,0.0,5.0,56,0.00,,CLR,0.00,25.00,VWS V14.01,2013-07-06 01:13:00,
2013-07-05 20:18:00,79.5,62.5,29.80,SE,146,1.0,7.0,56,0.00,,CLR,0.00,21.00,VWS V14.01,2013-07-06 01:18:00,
2013-07-05 20:24:00,79.4,62.3,29.80,SE,146,0.0,7.0,56,0.00,,CLR,0.00,26.00,VWS V14.01,2013-07-06 01:24:00,
2013-07-05 20:29:00,79.3,62.3,29.80,SSE,149,1.0,7.0,56,0.00,,CLR,0.00,28.00,VWS V14.01,2013-07-06 01:29:00,
2013-07-05 20:34:00,79.2,62.2,29.80,SSE,156,0.0,6.0,56,0.00,,CLR,0.00,23.00,VWS V14.01,2013-07-06 01:34:00,
2013-07-05 20:39:00,79.1,62.6,29.80,SSE,165,2.0,6.0,57,0.00,,CLR,0.00,12.00,VWS V14.01,2013-07-06 01:39:00,
2013-07-05 20:44:00,78.9,62.4,29.80,ESE,107,0.0,6.0,57,0.00,,CLR,0.00,9.00,VWS V14.01,2013-07-06 01:44:00,
2013-07-05 20:49:00,78.8,62.3,29.80,ESE,116,0.0,6.0,57,0.00,,CLR,0.00,5.00,VWS V14.01,2013-07-06 01:49:00,
2013-07-05 20:54:00,78.6,62.6,29.80,SSW,212,1.0,6.0,58,0.00,,CLR,0.00,0.00,VWS V14.01,2013-07-06 01:54:00,
2013-07-05 20:59:00,78.2,62.7,29.80,SSE,158,1.0,6.0,59,0.00,,CLR,0.00,0.00,VWS V14.01,2013-07-06 01:59:00,
2013-07-05 21:04:00,78.0,62.5,29.80,SSE,158,0.0,1.0,59,0.00,,CLR,0.00,0.00,VWS V14.01,2013-07-06 02:04:00,
2013-07-05 21:09:00,77.8,62.3,29.80,SSW,197,2.0,2.0,59,0.00,,CLR,0.00,0.00,VWS V14.01,2013-07-06 02:09:00,
2013-07-05 21:14:00,77.8,62.8,29.80,SE,124,0.0,4.0,60,0.00,,CLR,0.00,0.00,VWS V14.01,2013-07-06 02:14:00,
2013-07-05 21:19:00,77.8,62.8,29.80,SSE,148,0.0,4.0,60,0.00,,CLR,0.00,0.00,VWS V14.01,2013-07-06 02:19:00,
2013-07-05 21:24:00,77.7,62.7,29.81,SE,133,0.0,4.0,60,0.00,,CLR,0.00,0.00,VWS V14.01,2013-07-06 02:24:00,
2013-07-05 21:29:00,77.7,62.7,29.81,SE,134,1.0,5.0,60,0.00,,CLR,0.00,0.00,VWS V14.01,2013-07-06 02:29:00,
2013-07-05 21:34:00,77.6,63.1,29.81,SE,132,0.0,2.0,61,0.00,,CLR,0.00,0.00,VWS V14.01,2013-07-06 02:34:00,
2013-07-05 21:39:00,77.5,62.5,29.81,ESE,110,0.0,7.0,60,0.00,,CLR,0.00,0.00,VWS V14.01,2013-07-06 02:39:00,
2013-07-05 21:44:00,77.4,62.9,29.81,South,180,1.0,7.0,61,0.00,,CLR,0.00,0.00,VWS V14.01,2013-07-06 02:44:00,
2013-07-05 21:49:00,77.4,62.9,29.81,ESE,107,1.0,7.0,61,0.00,,CLR,0.00,0.00,VWS V14.01,2013-07-06 02:49:00,
2013-07-05 21:54:00,77.3,62.8,29.81,East,100,1.0,7.0,61,0.00,,CLR,0.00,0.00,VWS V14.01,2013-07-06 02:54:00,
2013-07-05 21:59:00,77.3,63.3,29.81,SSW,200,1.0,2.0,62,0.00,,CLR,0.00,0.00,VWS V14.01,2013-07-06 02:59:00,
2013-07-05 22:04:00,77.1,63.1,29.81,SSW,205,1.0,2.0,62,0.00,,BKN110,0.00,0.00,VWS V14.01,2013-07-06 03:04:00,
2013-07-05 22:09:00,77.0,63.0,29.81,SSW,205,1.0,2.0,62,0.00,,BKN110,0.00,0.00,VWS V14.01,2013-07-06 03:09:00,
2013-07-05 22:14:00,77.0,63.5,29.82,SSW,202,1.0,2.0,63,0.00,,BKN110,0.00,0.00,VWS V14.01,2013-07-06 03:14:00,
2013-07-05 22:19:00,76.9,63.4,29.82,South,173,0.0,8.0,63,0.00,,BKN110,0.00,0.00,VWS V14.01,2013-07-06 03:19:00,
2013-07-05 22:24:00,76.7,63.2,29.81,SE,138,1.0,8.0,63,0.00,,BKN110,0.00,0.00,VWS V14.01,2013-07-06 03:24:00,
2013-07-05 22:29:00,76.7,63.2,29.82,SSW,201,0.0,1.0,63,0.00,,BKN110,0.00,0.00,VWS V14.01,2013-07-06 03:29:00,
2013-07-05 22:34:00,76.7,63.2,29.82,ESE,119,1.0,6.0,63,0.00,,BKN110,0.00,0.00,VWS V14.01,2013-07-06 03:34:00,
2013-07-05 22:39:00,76.6,63.1,29.82,South,171,1.0,7.0,63,0.00,,BKN110,0.00,0.00,VWS V14.01,2013-07-06 03:39:00,
2013-07-05 22:44:00,76.5,63.4,29.82,SSW,194,0.0,7.0,64,0.00,,BKN110,0.00,0.00,VWS V14.01,2013-07-06 03:44:00,
2013-07-05 22:49:00,76.3,63.2,29.82,SSE,161,1.0,7.0,64,0.00,,BKN110,0.00,0.00,VWS V14.01,2013-07-06 03:49:00,
2013-07-05 22:54:00,76.3,63.2,29.81,South,190,0.0,7.0,64,0.00,,BKN110,0.00,0.00,VWS V14.01,2013-07-06 03:54:00,
2013-07-05 22:59:00,76.3,63.2,29.81,SSE,147,1.0,2.0,64,0.00,,BKN110,0.00,0.00,VWS V14.01,2013-07-06 03:59:00,
2013-07-05 23:01:00,76.2,63.1,29.82,SW,215,2.0,2.0,64,0.00,,BKN110,0.00,0.00,VWS V14.01,2013-07-06 04:01:00,
2013-07-05 23:02:00,76.2,63.6,29.82,ESE,118,1.0,4.0,65,0.00,,BKN110,0.00,0.00,VWS V14.01,2013-07-06 04:02:00,
2013-07-05 23:07:00,76.1,63.5,29.82,East,83,1.0,5.0,65,0.00,,BKN110,0.00,0.00,VWS V14.01,2013-07-06 04:07:00,
2013-07-05 23:12:00,76.0,63.4,29.82,SSW,198,0.0,6.0,65,0.00,,BKN110,0.00,0.00,VWS V14.01,2013-07-06 04:12:00,
2013-07-05 23:17:00,76.0,63.4,29.82,SSE,161,0.0,6.0,65,0.00,,BKN110,0.00,0.00,VWS V14.01,2013-07-06 04:17:00,
2013-07-05 23:22:00,75.9,63.3,29.82,ENE,64,0.0,8.0,65,0.00,,BKN110,0.00,0.00,VWS V14.01,2013-07-06 04:22:00,
2013-07-05 23:27:00,75.8,63.2,29.82,ESE,109,0.0,8.0,65,0.00,,BKN110,0.00,0.00,VWS V14.01,2013-07-06 04:27:00,
2013-07-05 23:32:00,75.7,63.5,29.82,ESE,123,0.0,7.0,66,0.00,,BKN110,0.00,0.00,VWS V14.01,2013-07-06 04:32:00,
2013-07-05 23:37:00,75.5,63.4,29.82,South,182,0.0,7.0,66,0.00,,BKN110,0.00,0.00,VWS V14.01,2013-07-06 04:37:00,
2013-07-05 23:42:00,75.4,63.3,29.82,South,176,0.0,7.0,66,0.00,,BKN110,0.00,0.00,VWS V14.01,2013-07-06 04:42:00,
2013-07-05 23:47:00,75.3,63.6,29.82,SSE,159,0.0,7.0,67,0.00,,BKN110,0.00,0.00,VWS V14.01,2013-07-06 04:47:00,
2013-07-05 23:52:00,75.2,63.5,29.82,SE,134,0.0,7.0,67,0.00,,BKN110,0.00,0.00,VWS V14.01,2013-07-06 04:52:00,
2013-07-05 23:57:00,75.1,63.4,29.83,SSE,151,0.0,7.0,67,0.00,,BKN110,0.00,0.00,VWS V14.01,2013-07-06 04:57:00,